This demonstration page uses our WeatherBlox Daily Observations layout. Learn more.

41.55636, -103.73856

Hourly Observations for April 22, 2019

Temp ( °F °C ) Dew Point ( °F °C ) Humidity (%) Winds ( mph kmh ) Pressure ( in mb ) Visibility ( mi km ) Precip ( " mm )
12:58 am 00:58 Mostly Cloudy with Light Drizzle 44 6.7 43 6.1 96 96 NNE 15 24 29.99 1016 1 1.60934 0 0
1:58 am 01:58 Mostly Cloudy with Light Showers 43 6.1 42 5.4 95 95 NE 14 22 30.03 1017 1 1.60934 0 0
2:58 am 02:58 Mostly Cloudy with Rain 42 5.4 40 4.7 95 95 NNE 13 20 30.06 1018 5 8.0467 0.08 2.032
3:58 am 03:58 Mostly Cloudy with Light Rain 41 4.8 40 4.2 96 96 NNE 15 24 30.07 1018 1 1.60934 0.04 1.016
4:58 am 04:58 Mostly Cloudy with Light Drizzle 40 4.2 38 3.6 96 96 N 15 24 30.11 1020 3 4.82802 0 0
5:58 am 05:58 Mostly Cloudy with Patchy Fog 38 3.6 37 3 96 96 N 16 26 30.13 1020 3 4.82802 0 0
6:58 am 06:58 Mostly Cloudy with Patchy Fog 38 3.2 37 2.6 96 96 N 14 22 30.16 1021 5 8.0467 0 0
7:58 am 07:58 Mostly Cloudy 37 2.9 36 2.3 96 96 N 13 20 30.19 1023 10 16.0934 0 0
8:58 am 08:58 Mostly Cloudy with Light Showers 37 2.6 36 2 96 96 N 12 19 30.2 1023 2.25 3.621015 0.03 0.762
9:58 am 09:58 Mostly Cloudy with Rain 36 2.1 35 1.5 96 96 N 13 20 30.22 1023 3 4.82802 0.03 0.762
10:58 am 10:58 Mostly Cloudy with Light Rain 35 1.6 34 1 96 96 NNE 9 15 30.22 1024 10 16.0934 0.03 0.762
11:58 am 11:58 Mostly Cloudy with Light Rain 35 1.7 34 1.2 97 97 NNE 13 20 30.22 1024 1 1.60934 0 0
12:58 pm 12:58 Mostly Cloudy 35 1.4 33 0.8 96 96 NNE 15 24 30.26 1025 10 16.0934 0 0
1:58 pm 13:58 Mostly Cloudy 35 1.4 33 0.8 96 96 NNE 16 26 30.29 1026 10 16.0934 0 0
2:58 pm 14:58 Mostly Cloudy 35 1.9 33 0.8 93 93 N 12 19 30.32 1027 10 16.0934 0 0
3:58 pm 15:58 Mostly Cloudy 36 2.3 35 1.4 94 94 N 7 11 30.35 1028 9 14.48406 0 0
4:58 pm 16:58 Mostly Cloudy 38 3.4 35 1.4 87 87 NNE 14 22 30.32 1027 10 16.0934 0 0
5:58 pm 17:58 Cloudy 39 4.1 34 1.1 81 81 NNE 12 19 30.33 1027 10 16.0934 0 0
6:58 pm 18:58 Cloudy 41 4.9 36 2.4 84 84 N 8 13 30.32 1027 10 16.0934 0 0
7:58 pm 19:58 Cloudy 43 5.9 36 2 76 76 NNE 6 9 30.32 1027 10 16.0934 0 0
8:58 pm 20:58 Cloudy 44 6.7 35 1.4 69 69 Calm 30.3 1026 10 16.0934 0 0
9:58 pm 21:58 Mostly Cloudy 46 7.7 36 2.2 68 68 ENE 5 7 30.29 1026 10 16.0934 0 0
10:58 pm 22:58 Cloudy 46 7.6 35 1.7 67 67 ENE 3 6 30.28 1025 10 16.0934 0 0
11:58 pm 23:58 Partly Cloudy 47 8.3 35 1.6 63 63 Calm 30.28 1025 10 16.0934 0 0

Powered by AerisWeather